| time (UTC) | temp F | wind direction | speed MPH | gust MPH | rain 1hr in | rain 24hr in | rain mn in | humidity % | barometer mb |
| 20260504090122 | 46 | 106 | 0.0 | 0.0 | 0.00 | 0.00 | 0.00 | 79 | 1008.2 |
| 20260504081553 | 46 | 76 | 0.0 | 0.0 | 0.00 | 0.00 | 0.00 | 72 | 1008.6 |
| 20260504044525 | 43 | 86 | 0.0 | 0.0 | 0.00 | 0.00 | 0.00 | 60 | 1009.3 |
| 20260504043033 | 43 | 97 | 0.0 | 0.0 | 0.00 | 0.00 | 0.00 | 60 | 1009.4 |
| 20260504041524 | 43 | 139 | 0.0 | 0.0 | 0.00 | 0.00 | 0.00 | 59 | 1009.5 |
| 20260504040024 | 43 | 88 | 0.0 | 0.0 | 0.00 | 0.00 | 0.00 | 60 | 1009.4 |
| 20260504034519 | 41 | 82 | 0.0 | 0.0 | 0.00 | 0.00 | 0.00 | 62 | 1009.5 |
| 20260504033020 | 40 | 82 | 0.0 | 0.0 | 0.00 | 0.00 | 0.00 | 65 | 1009.5 |
| 20260504031519 | 39 | 84 | 0.0 | 0.0 | 0.00 | 0.00 | 0.00 | 69 | 1009.6 |
| 20260504030018 | 41 | 84 | 0.0 | 0.0 | 0.00 | 0.00 | 0.00 | 67 | 1009.7 |
| 20260504024518 | 42 | 84 | 0.0 | 0.0 | 0.00 | 0.01 | 0.00 | 61 | 1009.7 |
| 20260504023021 | 43 | 84 | 0.0 | 0.0 | 0.00 | 0.01 | 0.00 | 60 | 1009.8 |
| 20260504021517 | 43 | 103 | 0.0 | 0.0 | 0.00 | 0.01 | 0.00 | 62 | 1009.9 |
| 20260504020019 | 43 | 79 | 0.0 | 0.0 | 0.00 | 0.01 | 0.00 | 62 | 1009.9 |
| 20260504014516 | 43 | 128 | 0.0 | 0.0 | 0.00 | 0.02 | 0.00 | 61 | 1009.9 |
| 20260504013018 | 42 | 118 | 0.0 | 0.0 | 0.00 | 0.02 | 0.00 | 62 | 1009.9 |
| 20260504011520 | 41 | 122 | 0.0 | 0.0 | 0.00 | 0.02 | 0.00 | 66 | 1009.9 |
| 20260504010015 | 40 | 122 | 0.0 | 0.0 | 0.00 | 0.02 | 0.00 | 70 | 1009.7 |
| 20260504004514 | 42 | 121 | 0.0 | 0.0 | 0.00 | 0.03 | 0.00 | 65 | 1009.6 |
| 20260504003012 | 43 | 122 | 0.0 | 0.0 | 0.00 | 0.03 | 0.00 | 64 | 1009.7 |
| 20260504001512 | 44 | 122 | 0.0 | 0.0 | 0.00 | 0.03 | 0.00 | 61 | 1009.5 |
| 20260504000011 | 47 | 122 | 0.0 | 0.0 | 0.00 | 0.03 | 0.00 | 55 | 1009.4 |
| 20260503234510 | 50 | 121 | 0.0 | 0.0 | 0.00 | 0.04 | 0.00 | 48 | 1009.4 |
| 20260503233009 | 52 | 205 | 0.0 | 0.0 | 0.00 | 0.04 | 0.00 | 46 | 1009.3 |
| 20260503231509 | 51 | 163 | 0.0 | 0.0 | 0.00 | 0.04 | 0.00 | 49 | 1009.2 |
| 20260503230007 | 50 | 136 | 0.0 | 0.0 | 0.00 | 0.04 | 0.00 | 52 | 1009.2 |
| 20260503224509 | 50 | 124 | 0.0 | 0.0 | 0.00 | 0.05 | 0.00 | 49 | 1009.3 |
| 20260503223005 | 50 | 152 | 0.0 | 0.0 | 0.00 | 0.05 | 0.00 | 49 | 1009.3 |
| 20260503221505 | 50 | 232 | 0.0 | 0.0 | 0.00 | 0.05 | 0.00 | 48 | 1009.3 |
| 20260503220005 | 50 | 82 | 0.0 | 0.0 | 0.00 | 0.05 | 0.00 | 48 | 1009.3 |
| 20260503214503 | 51 | 268 | 0.0 | 0.0 | 0.00 | 0.06 | 0.00 | 47 | 1009.3 |
| 20260503213102 | 50 | 246 | 0.0 | 0.0 | 0.00 | 0.06 | 0.00 | 48 | 1009.3 |
| 20260503211502 | 50 | 305 | 0.0 | 0.0 | 0.00 | 0.06 | 0.00 | 48 | 1009.3 |
| 20260503204605 | 50 | 229 | 0.0 | 0.0 | 0.00 | 0.06 | 0.00 | 47 | 1009.2 |
| 20260503203100 | 50 | 228 | 0.0 | 0.0 | 0.00 | 0.06 | 0.00 | 46 | 1009.3 |
| 20260503201558 | 49 | 295 | 0.0 | 0.0 | 0.00 | 0.06 | 0.00 | 48 | 1009.6 |
| 20260503194556 | 50 | 239 | 0.0 | 0.0 | 0.00 | 0.06 | 0.00 | 50 | 1009.8 |
| 20260503193051 | 49 | 279 | 0.0 | 0.0 | 0.00 | 0.06 | 0.00 | 54 | 1010.0 |
| 20260503191550 | 48 | 230 | 0.0 | 0.0 | 0.00 | 0.06 | 0.00 | 54 | 1010.0 |
| 20260503190051 | 49 | 236 | 0.0 | 2.0 | 0.00 | 0.06 | 0.00 | 51 | 1010.2 |
| 20260503184558 | 49 | 226 | 0.0 | 6.0 | 0.00 | 0.06 | 0.00 | 51 | 1010.2 |
| 20260503183046 | 49 | 212 | 0.0 | 0.0 | 0.00 | 0.06 | 0.00 | 52 | 1010.3 |
| 20260503181546 | 49 | 327 | 0.0 | 0.0 | 0.00 | 0.06 | 0.00 | 52 | 1010.4 |
| 20260503180054 | 48 | 259 | 0.0 | 0.0 | 0.00 | 0.06 | 0.00 | 53 | 1010.4 |
| 20260503174546 | 48 | 329 | 0.0 | 0.0 | 0.00 | 0.06 | 0.00 | 54 | 1010.5 |
| 20260503173050 | 47 | 256 | 0.0 | 0.0 | 0.00 | 0.06 | 0.00 | 55 | 1010.5 |
| 20260503171542 | 47 | 336 | 0.0 | 0.0 | 0.00 | 0.06 | 0.00 | 54 | 1010.5 |